| time (UTC) | temp C | wind direction | speed KPH | gust KPH | rain 1hr cm | rain 24hr cm | rain mn cm | humidity % | barometer mb |
| 20260507214536 | 27 | 109 | 11.3 | 17.7 | 0.00 | 0.15 | 0.15 | 74 | 1013.0 |
| 20260507213011 | 27 | 75 | 8.0 | 19.3 | 0.00 | 0.15 | 0.15 | 73 | 1012.9 |
| 20260507211510 | 28 | 117 | 11.3 | 20.9 | 0.00 | 0.15 | 0.15 | 72 | 1012.9 |
| 20260507210008 | 28 | 144 | 11.3 | 19.3 | 0.00 | 0.15 | 0.15 | 72 | 1012.9 |
| 20260507204504 | 28 | 139 | 9.7 | 24.1 | 0.00 | 0.15 | 0.15 | 72 | 1012.7 |
| 20260507203029 | 28 | 133 | 12.9 | 20.9 | 0.00 | 0.15 | 0.15 | 73 | 1012.8 |
| 20260507201518 | 28 | 98 | 12.9 | 22.5 | 0.00 | 0.15 | 0.15 | 71 | 1012.8 |
| 20260507200018 | 29 | 81 | 16.1 | 27.4 | 0.00 | 0.15 | 0.15 | 71 | 1012.9 |
| 20260507194510 | 29 | 148 | 11.3 | 22.5 | 0.00 | 0.15 | 0.15 | 72 | 1013.0 |
| 20260507193011 | 29 | 123 | 14.5 | 29.0 | 0.00 | 0.15 | 0.15 | 72 | 1013.2 |
| 20260507191508 | 29 | 139 | 12.9 | 25.7 | 0.00 | 0.15 | 0.15 | 71 | 1013.3 |
| 20260507190024 | 29 | 89 | 12.9 | 22.5 | 0.00 | 0.15 | 0.15 | 72 | 1013.4 |
| 20260507184524 | 29 | 132 | 16.1 | 20.9 | 0.00 | 0.15 | 0.15 | 72 | 1013.6 |
| 20260507183021 | 29 | 160 | 12.9 | 24.1 | 0.00 | 0.15 | 0.15 | 72 | 1013.6 |
| 20260507181515 | 28 | 134 | 12.9 | 25.7 | 0.00 | 0.15 | 0.15 | 73 | 1013.7 |
| 20260507180013 | 28 | 122 | 12.9 | 27.4 | 0.00 | 0.15 | 0.15 | 73 | 1014.0 |
| 20260507174508 | 29 | 138 | 17.7 | 22.5 | 0.00 | 0.15 | 0.15 | 72 | 1013.9 |
| 20260507173008 | 29 | 150 | 12.9 | 27.4 | 0.00 | 0.15 | 0.15 | 72 | 1014.3 |
| 20260507171525 | 29 | 136 | 19.3 | 27.4 | 0.00 | 0.15 | 0.15 | 71 | 1014.5 |
| 20260507170039 | 29 | 123 | 16.1 | 24.1 | 0.00 | 0.15 | 0.15 | 72 | 1014.8 |
| 20260507164519 | 29 | 153 | 14.5 | 25.7 | 0.00 | 0.15 | 0.15 | 70 | 1015.0 |
| 20260507163020 | 29 | 134 | 16.1 | 25.7 | 0.00 | 0.15 | 0.15 | 71 | 1015.1 |
| 20260507161514 | 28 | 133 | 9.7 | 27.4 | 0.00 | 0.15 | 0.15 | 73 | 1015.3 |
| 20260507160014 | 29 | 112 | 14.5 | 22.5 | 0.00 | 0.15 | 0.15 | 74 | 1015.4 |
| 20260507154526 | 28 | 122 | 14.5 | 19.3 | 0.00 | 0.15 | 0.15 | 73 | 1015.5 |
| 20260507153025 | 28 | 143 | 16.1 | 25.7 | 0.00 | 0.15 | 0.15 | 74 | 1015.6 |
| 20260507151523 | 28 | 136 | 16.1 | 24.1 | 0.00 | 0.15 | 0.15 | 74 | 1015.6 |
| 20260507150020 | 28 | 114 | 9.7 | 24.1 | 0.00 | 0.15 | 0.15 | 74 | 1015.7 |
| 20260507144518 | 28 | 124 | 14.5 | 20.9 | 0.00 | 0.15 | 0.15 | 73 | 1015.7 |
| 20260507143031 | 28 | 154 | 11.3 | 22.5 | 0.15 | 0.15 | 0.15 | 75 | 1015.7 |
| 20260507141513 | 28 | 117 | 11.3 | 24.1 | 0.15 | 0.15 | 0.15 | 78 | 1015.8 |
| 20260507140030 | 27 | 120 | 12.9 | 20.9 | 0.15 | 0.15 | 0.15 | 82 | 1015.9 |
| 20260507134528 | 26 | 81 | 3.2 | 12.9 | 0.15 | 0.15 | 0.15 | 85 | 1015.8 |
| 20260507133028 | 27 | 128 | 11.3 | 22.5 | 0.00 | 0.00 | 0.00 | 76 | 1015.6 |
| 20260507131528 | 28 | 145 | 9.7 | 20.9 | 0.00 | 0.00 | 0.00 | 74 | 1015.6 |
| 20260507130020 | 28 | 110 | 17.7 | 22.5 | 0.00 | 0.00 | 0.00 | 73 | 1015.6 |
| 20260507124515 | 28 | 167 | 6.4 | 14.5 | 0.00 | 0.00 | 0.00 | 74 | 1015.4 |
| 20260507123029 | 28 | 79 | 4.8 | 17.7 | 0.00 | 0.00 | 0.00 | 75 | 1015.3 |
| 20260507121531 | 28 | 110 | 9.7 | 14.5 | 0.00 | 0.00 | 0.00 | 75 | 1015.1 |
| 20260507120038 | 27 | 120 | 4.8 | 12.9 | 0.00 | 0.00 | 0.00 | 77 | 1014.9 |
| 20260507114526 | 27 | 136 | 6.4 | 12.9 | 0.00 | 0.00 | 0.00 | 80 | 1014.9 |
| 20260507113023 | 26 | 124 | 6.4 | 11.3 | 0.00 | 0.00 | 0.00 | 81 | 1014.8 |
| 20260507111524 | 26 | 83 | 6.4 | 16.1 | 0.00 | 0.00 | 0.00 | 82 | 1014.7 |
| 20260507110018 | 26 | 10 | 6.4 | 16.1 | 0.00 | 0.00 | 0.00 | 83 | 1014.7 |
| 20260507104527 | 25 | 130 | 3.2 | 12.9 | 0.00 | 0.00 | 0.00 | 85 | 1014.5 |
| 20260507103026 | 25 | 88 | 4.8 | 11.3 | 0.00 | 0.00 | 0.00 | 85 | 1014.3 |
| 20260507101507 | 25 | 68 | 3.2 | 16.1 | 0.00 | 0.00 | 0.00 | 84 | 1014.3 |
| 20260507100007 | 25 | 33 | 3.2 | 11.3 | 0.00 | 0.00 | 0.00 | 83 | 1014.3 |
| 20260507094502 | 25 | 46 | 1.6 | 8.0 | 0.00 | 0.00 | 0.00 | 83 | 1014.3 |
| 20260507093022 | 25 | 61 | 4.8 | 11.3 | 0.00 | 0.00 | 0.00 | 83 | 1014.3 |
| 20260507091519 | 25 | 359 | 1.6 | 6.4 | 0.00 | 0.00 | 0.00 | 83 | 1014.3 |
| 20260507090020 | 25 | 337 | 1.6 | 8.0 | 0.00 | 0.00 | 0.00 | 83 | 1014.2 |
| 20260507084514 | 25 | 356 | 1.6 | 11.3 | 0.00 | 0.00 | 0.00 | 83 | 1014.2 |
| 20260507083006 | 25 | 331 | 1.6 | 8.0 | 0.00 | 0.00 | 0.00 | 82 | 1014.1 |
| 20260507081505 | 25 | 67 | 3.2 | 12.9 | 0.00 | 0.00 | 0.00 | 83 | 1014.0 |
| 20260507080023 | 25 | 82 | 3.2 | 11.3 | 0.00 | 0.00 | 0.00 | 83 | 1013.8 |
| 20260507074544 | 25 | 53 | 0.0 | 6.4 | 0.00 | 0.00 | 0.00 | 83 | 1014.0 |
| 20260507073019 | 25 | 330 | 3.2 | 11.3 | 0.00 | 0.00 | 0.00 | 83 | 1014.1 |
| 20260507071514 | 25 | 76 | 3.2 | 9.7 | 0.00 | 0.00 | 0.00 | 83 | 1014.1 |
| 20260507070019 | 25 | 30 | 6.4 | 12.9 | 0.00 | 0.00 | 0.00 | 83 | 1014.2 |
| 20260507064509 | 25 | 334 | 1.6 | 9.7 | 0.00 | 0.00 | 0.00 | 83 | 1014.2 |
| 20260507063007 | 25 | 59 | 4.8 | 12.9 | 0.00 | 0.00 | 0.00 | 84 | 1014.4 |
| 20260507061524 | 25 | 30 | 3.2 | 8.0 | 0.00 | 0.00 | 0.00 | 84 | 1014.6 |
| 20260507060025 | 25 | 12 | 0.0 | 11.3 | 0.00 | 0.00 | 0.00 | 84 | 1014.7 |
| 20260507054522 | 25 | 39 | 1.6 | 6.4 | 0.00 | 0.00 | 0.00 | 83 | 1014.8 |
| 20260507053015 | 25 | 60 | 1.6 | 6.4 | 0.00 | 0.00 | 0.00 | 84 | 1015.2 |
| 20260507051512 | 25 | 39 | 1.6 | 4.8 | 0.00 | 0.00 | 0.00 | 85 | 1015.4 |
| 20260507050024 | 25 | 336 | 3.2 | 4.8 | 0.00 | 0.00 | 0.00 | 83 | 1015.9 |
| 20260507044510 | 25 | 48 | 0.0 | 3.2 | 0.00 | 0.00 | 0.00 | 83 | 1016.0 |
| 20260507043024 | 25 | 6 | 3.2 | 4.8 | 0.00 | 0.00 | 0.00 | 81 | 1016.3 |
| 20260507041522 | 26 | 296 | 1.6 | 4.8 | 0.00 | 0.00 | 0.00 | 79 | 1016.3 |
| 20260507040021 | 26 | 345 | 1.6 | 4.8 | 0.00 | 0.00 | 0.00 | 79 | 1016.4 |
| 20260507034519 | 26 | 62 | 1.6 | 4.8 | 0.00 | 0.00 | 0.00 | 82 | 1016.7 |
| 20260507033028 | 26 | 359 | 1.6 | 3.2 | 0.00 | 0.00 | 0.00 | 82 | 1016.7 |
| 20260507031509 | 26 | 345 | 1.6 | 6.4 | 0.00 | 0.00 | 0.00 | 81 | 1016.6 |
| 20260507030027 | 26 | 356 | 1.6 | 12.9 | 0.00 | 0.00 | 0.00 | 80 | 1016.7 |
| 20260507024529 | 26 | 13 | 3.2 | 6.4 | 0.00 | 0.00 | 0.00 | 81 | 1016.5 |
| 20260507023029 | 26 | 359 | 3.2 | 6.4 | 0.00 | 0.00 | 0.00 | 81 | 1016.5 |
| 20260507021524 | 26 | 335 | 3.2 | 4.8 | 0.00 | 0.00 | 0.00 | 80 | 1016.4 |
| 20260507020022 | 26 | 24 | 3.2 | 4.8 | 0.00 | 0.00 | 0.00 | 80 | 1016.4 |
| 20260507014519 | 26 | 355 | 1.6 | 6.4 | 0.00 | 0.00 | 0.00 | 80 | 1016.2 |
| 20260507013014 | 26 | 1 | 3.2 | 9.7 | 0.00 | 0.00 | 0.00 | 79 | 1016.1 |
| 20260507011533 | 26 | 343 | 1.6 | 8.0 | 0.00 | 0.00 | 0.00 | 80 | 1016.0 |
| 20260507010032 | 26 | 359 | 1.6 | 4.8 | 0.00 | 0.00 | 0.00 | 79 | 1015.9 |
| 20260507004525 | 26 | 13 | 1.6 | 6.4 | 0.00 | 0.00 | 0.00 | 79 | 1015.8 |
| 20260507003022 | 26 | 360 | 3.2 | 4.8 | 0.00 | 0.00 | 0.00 | 78 | 1015.7 |
| 20260507001525 | 26 | 39 | 3.2 | 4.8 | 0.00 | 0.00 | 0.00 | 78 | 1015.6 |
| 20260507000030 | 27 | 37 | 1.6 | 4.8 | 0.00 | 0.00 | 0.00 | 77 | 1015.5 |
| 20260506234528 | 27 | 18 | 1.6 | 4.8 | 0.00 | 0.00 | 0.00 | 76 | 1015.3 |
| 20260506233027 | 27 | 359 | 3.2 | 4.8 | 0.00 | 0.00 | 0.00 | 76 | 1015.2 |
| 20260506231525 | 27 | 63 | 1.6 | 4.8 | 0.00 | 0.00 | 0.00 | 75 | 1015.1 |
| 20260506230031 | 27 | 114 | 3.2 | 9.7 | 0.00 | 0.00 | 0.00 | 75 | 1015.0 |
| 20260506224522 | 27 | 131 | 3.2 | 9.7 | 0.00 | 0.00 | 0.00 | 75 | 1014.9 |
| 20260506223020 | 27 | 105 | 4.8 | 12.9 | 0.00 | 0.00 | 0.00 | 75 | 1014.6 |
| 20260506221503 | 27 | 130 | 6.4 | 9.7 | 0.00 | 0.00 | 0.00 | 75 | 1014.5 |
| 20260506220014 | 27 | 133 | 6.4 | 14.5 | 0.00 | 0.00 | 0.00 | 74 | 1014.4 |